Overview Statistics Trail Chart Weather Telemetry Raw packets
 

This is the latest recevied weather packets stored in our database for station/object KW6V-15. If no packets are shown the sender has not sent any weather packets the latest 10 day(s).

<< 14 15 16 17 18 19 >>
Time Temp. Humidity Pressure Rain* Wind** Luminosity Snow
1787905836 13.89° C 90% 1015.5 hPa 0 mm - - -
1787904020 14.44° C 90% 1015.3 hPa 0 mm - - -
1787902222 14.44° C 90% 1015.4 hPa 0 mm - - -
1787900453 14.44° C 90% 1015.4 hPa 0 mm - - -
1787898651 14.44° C 90% 1015.7 hPa 0 mm - - -
1787896876 14.44° C 90% 1015.8 hPa 0 mm - - -
1787895044 14.44° C 89% 1016.2 hPa 0 mm - - -
1787893231 14.44° C 89% 1016.3 hPa 0 mm - - -
1787891423 14.44° C 89% 1016.3 hPa 0 mm - - -
1787889658 14.44° C 89% 1016.2 hPa 0 mm - - -
1787887855 14.44° C 89% 1016.2 hPa 0 mm - - -
1787886023 14.44° C 89% 1016.3 hPa 0 mm - - -
1787884251 14.44° C 88% 1016.4 hPa 0 mm - - -
1787882449 15° C 87% 1016.2 hPa 0 mm - - -
1787878932 17.78° C 78% 1016 hPa 0 mm - - -
1787877038 20° C 73% 1015.9 hPa 0 mm - - -
1787875236 20.56° C 70% 1015.8 hPa 0 mm - - -
1787873461 21.67° C 69% 1015.8 hPa 0 mm - - -
1787871643 21.67° C 68% 1016 hPa 0 mm - - -
1787869828 21.67° C 68% 1016.3 hPa 0 mm - - -
1787868022 22.22° C 67% 1016.1 hPa 0 mm - - -
1787866266 22.22° C 67% 1016 hPa 0 mm - - -
1787864452 22.78° C 66% 1016.2 hPa 0 mm - - -
1787860856 21.11° C 75% 1016.9 hPa 0 mm - - -
1787857249 18.33° C 79% 1017.4 hPa 0 mm - - -

* Rain latest hour (hover to see other rain measurements)
** Current wind speed in m/s (hover to see current wind gust speed)